Hourly Data Report for January 17, 2003

TORONTO CITY
ONTARIO

43°40'00.000" N
79°24'00.000" W
112.50 m
6158355
71508
XTO

Download Data

Hourly Data (January 2003)
Hourly Data Report for January 17, 2003
TIME
LST
Temp Definition
°C
Dew Point Definition
°C
Rel Hum Definition
%
Precip. Amount Definition
mm

Wind Dir Definition
10's deg

Wind Spd Definition
km/h
Visibility Definition
km
Stn Press Definition
kPa
Hmdx Definition


Wind Chill Definition


Weather Definition


00:00 -6.0 -9.6 76     0 LegendMM 99.83     LegendNANA
01:00
02:00 -6.7 -11.7 68     0 LegendMM 99.82     LegendNANA
03:00 -7.9 -13.6 64     0 LegendMM 99.88     LegendNANA
04:00 -9.9 -14.8 67     0 LegendMM 99.90     LegendNANA
05:00 -12.4 -16.3 73     0 LegendMM 99.97     LegendNANA
06:00 -14.6 -19.3 67     0 LegendMM 100.08     LegendNANA
07:00 -15.5 -20.7 64     0 LegendMM 100.25     LegendNANA
08:00 -16.3 -21.4 65     0 LegendMM 100.39     LegendNANA
09:00 -16.5 -22.9 58     0 LegendMM 100.50     LegendNANA
10:00 -16.8 -23.8 55     0 LegendMM 100.59     LegendNANA
11:00 -15.7 -24.3 48     0 LegendMM 100.63     LegendNANA
12:00 -15.3 -24.4 46     0 LegendMM 100.61     LegendNANA
13:00 -15.1 -25.5 41     0 LegendMM 100.60     LegendNANA
14:00 -14.8 -25.0 42     0 LegendMM 100.59     LegendNANA
15:00 -14.6 -22.6 51     0 LegendMM 100.61     LegendNANA
16:00 -14.5 -21.6 55     0 LegendMM 100.66     LegendNANA
17:00 -14.2 -20.2 60     0 LegendMM 100.65     LegendNANA
18:00 -14.0 -20.0 60     0 LegendMM 100.67     LegendNANA
19:00 -13.7 -19.9 59     0 LegendMM 100.68     LegendNANA
20:00 -13.8 -19.8 60     0 LegendMM 100.67     LegendNANA
21:00 -14.3 -19.0 67     0 LegendMM 100.63     LegendNANA
22:00 -13.1 -17.3 71     0 LegendMM 100.59     LegendNANA
23:00                      

Notes on Data Quality.

Legend

  • E = Estimated
  • M = Missing
  • NA = Not Available*
  • [empty] = Indicates an unobserved value
Date modified: